STARLINK-1894, 46744

Orbit data source: Space-Track

STARLINK-1894, 46744 is a payload satellite owned by SpaceX/Seattle (US) in LEO that was launched on Sat, 24 Oct 2020 UTC via an FALCON 9 launch vehicle from the Air Force Eastern Test Range (AFETR). Payload-class satellites include a variety of spacecraft equipped with specific instruments for various scientific and technological missions. These include communications satellites like Starlink; space stations such as the ISS; scientific satellites like the Hubble; Earth observation satellites from companies like Planet Labs, Umbra, and HawkEye 360; GPS; miniature CubeSats for education and research; and military/defense satellites.

Loading next visibility...
Identifier
46744, 2020-074F
Orbit
LEO
Country
Flag of USUS
Related business
Manufacturer
SpaceX/Seattle
Mission
Partially operational Commercial Communications
Bus & Motor
STARLINK, Unknown motor
Mass
260 kg wet, ~248 kg dry
Launch date (UTC)
2020-10-24 (5 years ago)
Launch vehicle
FALCON 9
Launch site
Air Force Eastern Test Range (AFETR)
Object type
Payload
Rocket body
Debris
Shape & HBR
Box + 1 Pan, 10.1 m
Radar Cross Section
13.562 m², Large (>1 m²)

Expand to show TLE details & history
Last TLE update: 6 hours ago

TLE from 6 hours ago
0 STARLINK-1894
1 46744U 20074F   26073.00002315  .00267032  00000-0  12175-2 0  9995
2 46744  53.0409 256.0725 0003995 305.2966  95.8854 15.82528094  5943
Epoch: 2026-03-14T00:00Z
TLE epoch observation values (Epoch: 2026-03-14T00:00:02.000Z)
Latitude
31.88097°
Longitude
112.17048°
Altitude
325.569 km
Speed
7.717 km/s
True Right ascension
18h 55m 13s
True Declination
31° 43' 01"
Sunlit
Object was in daylight at epoch
Visualization orbit readout
Latitude
Unknown
Longitude
Unknown
Altitude
Unknown
Speed
Unknown
Apparent Right ascension
Unknown
Apparent Declination
Unknown
Sunlit
N/A
Visualization observer readout
Local Sidereal Time
10:46:31
Azimuth
Unknown
Elevation
Unknown
Doppler factor
Unknown
Orbital elements
Apogee altitude
326.253 km
Perigee altitude
320.898 km
Semi-major axis
6,701.713 km
Eccentricity
0.0004
Inclination
53.0409°
RAAN
256.0725°
Arg. of periapsis
305.2966°
True anomaly
95.93094°
Mean anomaly
95.8854°
Eccentric anomaly
95.90817°
Mean motion
3.95607 °/min
Orbital period
91 mins
BSTAR
0.0012175
Loading maneuver chart data...
Computing Atmospheric mass density...

Documentation

Showing up to 5 results
|